Theta_e
287 284 281 283 285 285 283 282 281 284 288 285 284 286 289 292 292 292 293 293 294 295 298 297 299 312 324 328 331 331 330 331 331 319 316 313 315 310 310 309 306 305 305 303
283 281 285 287 287 285 283 282 282 285 289 287 286 286 290 292 293 294 294 294 295 296 297 297 296 299 310 322 328 330 331 331 329 324 323 322 314 308 310 305 304 303 303 302
281 284 287 285 283 282 282 282 282 282 286 288 284 283 287 291 291 292 292 292 292 292 293 295 297 296 298 307 322 327 330 330 325 324 313 305 304 303 301 302 302 303 301 300
280 284 284 282 280 282 280 284 284 284 283 276 284 275 285 289 288 289 291 291 292 292 291 292 293 295 296 297 306 326 328 327 325 323 313 310 311 305 303 303 301 300 301 299
277 279 281 278 277 283 281 282 283 283 280 281 279 277 280 285 283 286 288 290 291 293 292 291 292 294 295 297 299 311 326 326 324 317 316 313 314 313 305 301 300 298 298 297
277 282 278 277 278 281 280 280 281 282 281 275 278 278 277 281 283 284 287 289 290 292 293 291 293 294 294 296 297 305 317 323 320 314 316 315 314 303 300 299 298 296 297 296
274 276 278 277 275 279 276 274 263 264 268 270 278 276 279 284 285 286 286 288 290 292 293 291 290 291 293 294 298 306 313 315 314 312 313 313 310 305 304 301 300 295 295 294
267 266 273 276 275 273 273 276 264 259 264 268 276 272 276 281 284 285 287 288 289 291 292 292 291 291 292 293 294 301 304 308 304 310 310 312 306 305 305 303 300 297 295 294
264 267 274 277 276 275 271 270 276 264 265 267 272 277 282 280 280 282 283 285 287 288 289 290 291 292 292 292 292 294 299 300 301 304 305 305 304 303 302 301 300 298 296 293
269 261 273 275 276 276 274 277 267 266 261 260 270 273 270 274 277 279 280 281 283 284 285 286 288 290 292 293 292 293 295 297 298 299 300 301 303 303 301 300 298 296 295 293
272 266 267 274 270 271 272 269 269 265 266 263 261 267 275 275 278 278 280 281 283 283 283 284 286 288 290 293 293 292 292 293 295 297 298 299 299 299 299 298 296 295 293 292
273 264 263 267 271 274 274 269 269 258 259 265 265 265 279 277 278 279 279 281 283 284 284 284 285 286 287 289 292 292 292 292 293 295 296 296 297 297 297 296 295 293 293 292
270 262 253 260 265 270 268 271 271 267 263 262 258 264 277 276 277 278 277 281 282 283 284 284 284 284 285 286 289 291 291 291 292 293 294 294 294 295 295 294 293 292 291 290
278 269 260 257 261 265 265 268 268 262 261 263 265 267 271 273 275 276 277 279 282 282 283 284 284 284 284 285 287 289 292 291 291 291 292 292 292 293 293 292 292 291 290 289
270 259 264 266 268 268 268 268 269 266 266 263 266 266 270 273 275 276 277 278 281 281 281 282 282 284 285 284 285 287 290 292 291 290 291 290 290 290 290 290 290 290 290 289
272 260 262 262 266 268 266 268 269 269 269 269 268 268 276 278 278 276 277 277 278 279 280 281 282 283 283 284 284 286 288 291 291 290 290 290 289 289 289 289 288 288 288 287
271 267 258 256 261 258 255 262 267 269 270 269 266 271 275 275 275 276 275 277 278 280 279 281 282 282 283 284 285 285 286 290 291 290 290 289 288 288 288 288 288 287 287 286
270 266 265 258 254 250 264 269 270 270 271 272 273 272 274 276 275 276 278 277 279 278 279 280 281 282 283 284 285 286 286 288 288 288 289 289 288 287 287 287 287 286 286 286
274 270 262 256 250 260 265 268 268 267 268 272 271 273 274 276 273 273 277 277 278 274 277 280 282 283 282 283 284 285 285 286 286 286 287 287 287 286 286 286 286 286 286 285
268 272 264 250 251 250 263 269 271 271 263 272 272 272 273 273 268 272 277 278 278 277 276 277 280 282 282 281 283 283 284 284 285 286 285 287 286 287 286 286 286 285 286 285
259 260 261 262 258 258 268 271 272 259 265 272 273 274 273 272 274 276 277 277 278 274 275 277 278 278 279 281 282 282 283 283 284 285 286 285 286 287 287 286 286 286 285 285
261 256 256 254 253 256 270 269 266 271 274 274 274 274 274 275 276 276 276 277 277 275 275 277 275 277 278 280 281 281 282 284 284 284 285 286 285 286 286 287 286 286 285 285
263 267 264 265 263 271 272 272 274 275 274 275 275 276 275 275 275 276 276 276 277 277 277 276 274 275 277 277 279 280 282 282 282 282 282 285 286 285 286 286 285 285 285 284
268 271 268 269 272 273 274 276 276 276 275 277 277 276 276 274 276 276 277 277 277 278 277 275 276 275 275 277 278 276 279 280 280 279 281 284 285 285 284 286 286 286 285 285
271 270 269 270 273 274 275 276 277 277 277 277 277 277 276 276 276 277 277 277 277 276 276 276 275 275 275 275 275 275 278 277 277 277 279 282 285 286 285 285 286 287 287 287
273 272 270 268 274 273 274 277 278 277 277 278 277 277 277 276 276 276 275 275 274 273 272 272 272 270 270 271 271 273 274 273 273 275 277 280 283 286 286 286 285 289 290 289
Wind_Speed
7 11 8 10 5 5 5 3 6 8 9 5 8 16 13 16 14 16 13 13 14 14 13 8 9 10 13 14 16 18 17 16 12 6 7 4 5 5 5 6 8 7 8 8
7 10 7 7 5 6 6 6 6 7 6 8 14 22 16 16 14 13 15 14 14 16 15 10 8 7 12 16 17 18 19 18 14 11 9 5 6 3 4 5 5 6 8 7
7 4 7 6 8 13 5 6 9 9 9 9 10 10 3 4 0 15 18 16 18 18 19 20 17 9 10 13 17 17 18 17 16 15 8 6 8 5 4 4 5 5 7 7
4 6 7 8 7 10 4 12 8 9 9 5 9 11 3 4 13 19 19 19 18 21 19 18 20 18 12 12 11 16 17 17 16 17 14 17 12 10 7 9 7 6 7 8
4 8 8 9 9 8 4 16 13 12 6 4 2 5 7 13 18 21 20 20 20 18 19 20 20 19 18 15 10 14 16 17 19 19 19 15 13 8 7 9 12 10 7 8
3 5 6 5 10 3 15 9 6 3 3 3 5 4 4 7 8 15 17 18 20 22 21 19 18 18 17 16 11 9 13 15 14 16 17 18 16 13 13 11 10 10 7 6
8 4 2 7 7 5 19 6 6 8 1 4 4 5 5 9 14 13 15 15 16 19 20 21 23 22 20 19 16 9 9 13 12 16 17 18 17 17 18 18 13 14 11 7
6 8 9 11 3 5 7 4 5 5 3 6 11 6 7 13 14 17 17 18 20 21 20 20 21 19 19 19 17 13 8 7 7 13 14 14 14 10 10 14 12 10 10 9
3 6 4 7 6 3 9 5 5 3 6 6 6 3 4 20 20 23 25 25 23 24 24 24 23 20 18 18 17 15 10 5 5 6 8 10 13 13 12 13 11 8 8 9
2 5 3 6 6 8 3 6 6 5 7 7 3 4 6 17 19 19 21 22 22 22 24 22 20 21 18 17 15 14 12 5 3 4 4 7 10 11 12 12 13 13 12 10
2 4 7 5 5 4 5 3 4 2 0 4 6 5 4 4 10 13 15 17 18 20 20 22 20 19 19 17 15 13 11 9 5 3 5 7 7 10 11 11 12 11 14 14
1 4 5 5 5 4 2 2 4 6 7 4 6 13 8 13 10 10 12 12 15 14 17 17 19 19 20 19 18 15 11 9 6 5 3 5 8 8 10 11 12 13 11 14
2 2 5 11 8 4 1 3 6 1 0 11 4 12 11 27 15 11 13 9 13 15 15 14 18 19 20 20 19 17 14 10 6 5 1 4 6 9 9 11 12 12 15 11
7 5 8 8 8 5 12 8 8 5 3 11 15 27 21 21 12 15 12 12 11 12 15 15 15 16 18 18 18 19 16 11 7 5 4 1 3 6 8 10 11 12 12 14
6 6 4 7 12 15 18 17 18 13 16 10 18 18 25 20 13 12 10 10 10 12 14 15 15 15 15 16 18 19 18 15 8 6 4 5 5 5 6 9 10 8 12 10
4 5 1 7 13 16 16 17 17 17 19 17 20 20 18 9 9 8 11 11 10 9 13 13 13 14 16 15 14 15 16 16 9 5 4 3 3 6 5 6 9 9 7 9
5 3 3 7 4 6 8 12 14 6 7 8 9 10 10 9 7 9 8 13 11 10 10 12 12 12 14 14 12 13 15 16 12 6 0 3 4 2 6 7 7 9 8 8
9 4 4 5 4 3 8 4 7 11 14 12 10 14 13 14 7 8 9 10 10 10 12 11 10 11 12 11 11 11 10 10 12 9 4 3 6 6 3 5 8 8 7 10
14 7 2 3 4 9 8 8 6 7 9 7 11 13 11 8 6 9 8 8 8 8 10 11 10 11 10 11 11 11 9 10 9 10 6 4 4 7 9 5 4 6 7 7
3 7 5 3 4 8 7 5 3 3 10 9 6 9 8 4 8 13 14 10 12 9 8 10 12 9 8 10 7 10 10 7 9 9 7 6 5 7 8 10 7 2 5 6
3 0 11 10 6 12 10 10 1 5 8 3 3 6 8 12 11 13 13 13 9 8 9 8 9 9 9 10 6 10 10 10 9 10 6 6 6 8 8 9 7 9 7 6
9 7 5 2 1 15 8 2 8 6 2 4 8 12 12 14 15 13 13 13 13 10 11 10 7 9 11 8 7 8 10 9 10 9 10 7 6 6 4 9 8 9 11 10
8 10 6 11 12 6 5 6 6 10 15 15 12 14 11 13 13 15 15 13 13 13 9 6 6 7 10 8 6 8 11 10 12 11 9 10 6 6 7 10 9 9 9 8
5 7 9 11 24 23 22 22 16 11 13 15 14 13 12 14 16 15 13 12 10 9 8 3 6 7 10 8 8 6 9 9 10 11 10 9 8 5 7 7 7 8 9 8
9 7 10 18 28 21 20 20 20 17 13 14 13 12 14 12 14 12 12 10 6 6 5 7 9 10 13 12 13 10 9 9 9 9 9 8 7 7 7 8 8 9 9 11
10 20 14 18 20 14 16 16 14 14 15 14 16 15 12 8 11 5 6 5 6 7 9 8 8 10 12 12 13 9 7 9 9 10 8 7 7 6 6 6 7 15 12 15
Wind_Direction
6 65 40 334 333 293 275 250 263 268 268 295 260 275 275 287 286 283 272 268 278 268 273 240 231 215 211 209 203 201 196 197 185 161 152 147 176 170 160 162 154 151 149 146
41 62 350 322 5 349 344 301 306 290 340 328 296 291 284 257 273 279 300 312 305 312 313 303 270 245 217 213 210 206 203 195 188 181 182 180 165 159 144 134 121 137 139 145
68 45 333 25 23 13 334 2 336 305 318 276 309 286 72 280 273 34 17 4 359 353 346 339 328 263 242 230 214 207 202 197 186 188 146 106 97 89 93 147 140 161 153 152
55 354 8 34 21 356 17 338 309 299 330 312 44 294 23 305 33 21 11 7 356 350 346 341 337 334 300 249 229 216 201 191 192 181 175 171 180 165 188 170 156 148 152 157
324 358 1 36 348 328 329 311 283 272 249 313 317 274 296 31 11 357 355 354 356 354 348 339 338 331 322 302 234 221 213 198 190 181 182 186 183 186 157 149 157 144 151 139
345 296 57 309 308 338 339 318 297 169 233 233 15 317 50 24 358 341 350 354 353 354 353 347 339 340 338 330 293 245 219 214 194 183 187 190 185 161 151 159 167 153 156 150
332 13 28 2 342 332 354 14 353 3 5 224 1 346 32 30 5 343 330 345 354 357 356 353 350 348 344 341 329 295 244 215 197 189 189 189 180 171 173 170 175 163 159 175
14 336 20 343 25 289 328 6 133 280 303 295 330 251 54 8 354 343 355 353 351 357 354 352 350 349 345 342 336 320 290 252 202 200 195 188 168 167 170 179 171 176 164 157
41 282 350 333 333 35 309 31 183 226 250 250 226 172 302 7 13 5 1 0 356 359 353 351 345 344 348 347 339 331 303 269 229 205 180 178 170 164 163 162 162 160 151 146
258 309 343 301 4 18 98 5 18 351 325 309 295 62 5 3 10 5 360 2 354 354 354 349 346 343 341 346 344 342 336 290 238 168 156 165 170 160 151 156 159 159 143 140
120 115 299 339 37 322 19 47 27 143 6 305 325 283 155 23 10 357 352 355 355 349 353 348 346 347 342 345 354 348 347 336 319 161 145 141 150 149 147 154 150 152 144 143
309 154 283 277 282 256 127 124 135 123 288 242 248 247 232 18 6 355 332 338 334 349 354 348 348 348 352 352 350 351 349 346 337 337 89 117 127 141 147 150 154 143 155 141
261 315 352 345 357 1 52 330 286 245 11 236 237 268 341 330 347 339 336 323 330 340 342 346 353 353 351 355 351 348 349 345 342 332 74 132 151 153 159 151 149 155 143 153
211 202 171 202 220 237 290 271 250 156 242 277 251 284 298 299 324 326 318 323 321 328 338 349 348 350 348 351 353 351 346 344 337 3 346 41 152 161 153 144 150 142 145 143
143 203 220 242 263 272 266 271 269 251 240 246 280 283 284 288 287 295 293 317 315 323 331 339 341 341 346 352 348 351 350 343 341 351 10 14 45 58 111 128 131 139 144 146
188 255 158 274 237 258 269 263 256 255 262 252 260 267 270 251 268 284 297 313 306 311 325 320 326 335 337 339 347 341 347 340 333 335 10 56 38 103 96 122 119 127 117 124
218 188 74 267 334 329 303 235 238 226 222 217 249 257 291 285 261 311 290 303 297 291 309 312 317 320 325 329 332 344 336 343 331 316 321 120 111 89 135 126 132 136 143 132
238 171 187 270 22 301 242 267 231 229 257 260 274 291 286 271 265 293 287 280 286 292 306 306 305 306 312 317 323 330 331 339 342 316 271 192 154 140 133 146 153 140 154 159
219 201 220 218 197 293 274 257 204 183 271 248 269 283 284 275 316 287 259 267 272 259 284 294 291 293 307 313 322 322 334 331 344 337 293 243 200 162 152 163 166 154 158 162
89 192 180 106 189 235 237 250 124 122 280 243 249 272 291 324 302 292 307 298 289 276 273 289 297 298 305 304 315 321 322 328 339 324 308 268 224 189 184 164 160 160 180 167
113 144 215 223 244 273 245 247 118 103 253 209 229 255 283 287 276 283 291 288 275 254 275 280 292 296 286 302 304 316 322 322 318 309 285 288 233 216 193 173 165 168 175 165
181 176 193 90 213 275 232 39 185 228 270 291 279 282 275 278 284 286 282 284 292 286 286 289 286 294 303 301 305 300 310 309 309 315 304 276 252 225 197 188 179 181 176 183
256 206 210 197 221 240 202 253 266 287 283 288 282 281 264 267 276 284 285 284 284 286 281 280 269 291 298 301 287 291 306 317 312 314 305 289 241 210 204 191 187 174 180 180
254 191 235 251 254 258 264 268 273 274 268 277 270 268 269 265 276 282 284 288 286 289 296 283 315 310 299 310 307 266 306 311 310 308 304 288 278 234 199 199 196 194 180 184
233 163 230 248 262 273 265 263 269 277 268 268 265 257 260 259 269 274 283 289 295 308 333 338 315 308 307 315 309 316 319 325 315 307 297 287 259 245 225 209 199 203 201 186
224 245 242 256 259 257 272 277 274 271 277 276 278 283 269 250 266 285 285 305 319 325 321 317 323 313 307 308 303 306 337 331 318 311 304 299 283 256 245 226 220 227 219 196